Vertical_Velocity
-4 -3 5 1 8 -4 1 15 3 9 6 7 11 5 7 -1 -11 -4 3 2 2 8 4 4 -2 2 1 -1 1 0 -0 -1
1 -11 -2 6 -7 6 -0 14 -9 10 8 -2 3 -16 -10 11 -5 -6 2 3 -0 5 3 2 3 -1 -2 3 4 -0 -1 0
-19 11 -9 -4 6 -7 -2 -1 2 5 9 0 10 -1 -7 1 8 6 2 0 5 7 1 -7 2 2 -3 -2 -3 -9 5 -3
-16 -4 5 -3 1 5 -4 -3 4 4 6 7 13 16 24 20 2 5 -12 -1 3 -1 -3 4 1 2 -5 -5 -8 -8 -5 2
-13 -11 -4 -10 -11 5 -2 5 4 3 5 2 -6 -8 -14 -13 1 2 -1 2 3 3 4 -3 -2 -1 -6 -9 -2 -6 7 -3
-8 23 26 -3 0 -3 -4 6 2 10 -1 9 5 1 -3 3 4 3 7 3 4 -1 2 -12 -8 -4 -6 -4 -5 -12 -5 5
2 1 -3 -3 -2 5 33 -0 1 6 5 3 2 0 2 3 2 2 -4 3 4 4 1 1 1 -3 -5 -12 -0 5 -4 5
-1 -1 5 7 1 4 8 7 -3 1 5 10 0 -1 -1 1 0 -3 4 4 4 -7 0 -3 -4 -8 -4 7 -4 -1 -8 -8
0 4 5 3 3 1 2 0 12 15 -0 4 2 2 5 -3 6 1 5 3 -1 5 2 -1 -4 4 2 -1 -6 -3 4 1
4 5 0 7 5 4 5 5 4 1 -2 17 5 6 4 -1 -0 7 -1 6 4 5 3 0 7 3 -0 -2 -2 -4 -10 7
-0 3 -6 13 6 5 10 9 6 6 1 2 2 24 17 11 7 7 3 7 8 -1 8 4 5 3 5 2 4 3 4 -1
4 -1 4 15 12 6 6 7 12 2 6 9 7 6 8 11 31 32 14 13 3 3 1 10 0 2 1 2 5 6 0 2
5 4 5 -1 3 -3 4 -1 10 -3 0 12 3 6 8 -1 11 11 6 10 10 10 2 7 4 1 -2 -4 2 -1 -3 -0
4 -1 0 6 -3 -1 -1 -3 19 -1 1 11 2 -3 1 -3 2 6 6 10 11 16 22 16 10 1 7 1 1 -3 -0 2
5 -4 1 4 -1 -0 -3 -3 1 -0 3 16 -9 -2 -5 -0 -4 2 4 -0 7 4 24 9 9 17 26 12 2 5 4 0
3 4 -3 2 -3 7 -8 -1 -3 -1 -3 5 -12 -3 -4 -2 9 -0 -4 1 -5 3 1 17 5 19 13 25 13 15 30 -1
1 4 -0 -3 -1 -2 6 -5 2 -1 -28 28 -5 -21 -6 -10 13 -5 -7 -2 -14 6 -20 19 1 1 15 16 -19 8 24 -1
1 1 5 3 -1 2 3 -0 4 12 9 -5 -6 2 -7 -26 24 -17 -1 -3 -31 13 -12 12 -7 -4 27 -25 17 10 -12 18
-2 -1 3 -0 -1 2 4 -2 -5 -5 -2 5 10 -13 -19 26 -15 12 1 -8 8 -27 6 -4 -3 -32 14 -18 0 -13 2 -10
Height
1415 1418 1417 1420 1425 1427 1428 1434 1439 1442 1446 1451 1455 1459 1466 1471 1481 1487 1492 1495 1500 1504 1511 1516 1517 1525 1532 1537 1543 1549 1556 1561
1404 1408 1409 1409 1413 1417 1420 1423 1429 1433 1435 1440 1444 1449 1455 1461 1467 1477 1483 1487 1492 1497 1504 1507 1510 1518 1524 1533 1539 1546 1551 1558
1396 1396 1399 1400 1401 1406 1410 1414 1419 1424 1427 1430 1435 1441 1446 1451 1457 1465 1474 1479 1485 1490 1494 1497 1501 1509 1518 1527 1534 1541 1547 1551
1383 1385 1386 1388 1391 1393 1398 1403 1409 1414 1420 1425 1430 1436 1442 1447 1451 1458 1463 1469 1474 1482 1486 1489 1494 1502 1511 1519 1527 1532 1537 1543
1366 1370 1372 1376 1378 1384 1388 1393 1398 1404 1409 1414 1417 1423 1428 1433 1437 1443 1450 1459 1465 1471 1477 1480 1488 1496 1506 1513 1518 1525 1530 1532
1359 1355 1360 1361 1368 1371 1377 1382 1388 1393 1398 1404 1408 1414 1421 1427 1432 1437 1442 1448 1454 1460 1465 1471 1476 1489 1496 1504 1509 1516 1521 1525
1364 1360 1358 1358 1358 1358 1365 1372 1378 1384 1390 1394 1401 1405 1412 1418 1424 1429 1434 1438 1442 1448 1454 1459 1465 1474 1484 1491 1499 1505 1511 1516
1372 1368 1364 1359 1356 1356 1360 1365 1371 1377 1382 1387 1393 1398 1403 1409 1414 1418 1423 1428 1432 1437 1442 1449 1456 1462 1471 1480 1486 1494 1501 1505
1382 1373 1365 1359 1354 1353 1355 1359 1367 1372 1375 1379 1384 1389 1393 1398 1403 1408 1413 1417 1421 1426 1431 1436 1446 1454 1461 1468 1475 1484 1489 1494
1383 1372 1369 1363 1355 1353 1353 1354 1357 1360 1366 1373 1375 1379 1383 1387 1393 1399 1403 1409 1413 1419 1423 1429 1436 1443 1451 1458 1464 1470 1478 1483
1391 1377 1380 1369 1363 1360 1355 1353 1355 1356 1360 1362 1366 1372 1378 1381 1385 1390 1396 1400 1403 1409 1416 1422 1430 1435 1440 1447 1454 1460 1467 1472
1396 1391 1384 1373 1368 1364 1362 1358 1356 1355 1358 1357 1358 1362 1364 1371 1379 1386 1390 1393 1397 1403 1409 1415 1421 1427 1433 1439 1444 1449 1456 1463
1410 1400 1391 1380 1373 1372 1370 1369 1365 1365 1364 1360 1361 1361 1360 1363 1367 1372 1378 1383 1391 1398 1404 1409 1414 1419 1425 1431 1437 1441 1447 1453
1413 1405 1399 1390 1388 1384 1382 1379 1377 1377 1374 1367 1366 1364 1365 1366 1368 1369 1371 1376 1383 1390 1394 1401 1405 1410 1416 1422 1428 1434 1439 1445
1423 1415 1407 1403 1399 1396 1393 1392 1388 1387 1383 1379 1377 1375 1378 1375 1373 1371 1372 1375 1379 1384 1388 1392 1397 1404 1409 1413 1418 1424 1429 1435
1429 1423 1417 1412 1409 1405 1403 1402 1399 1397 1387 1394 1389 1387 1392 1379 1375 1376 1376 1382 1383 1384 1387 1385 1392 1394 1398 1400 1406 1416 1409 1423
1440 1433 1428 1423 1418 1414 1411 1410 1406 1400 1392 1396 1393 1398 1391 1391 1381 1391 1379 1385 1386 1391 1394 1388 1386 1388 1393 1390 1398 1408 1412 1418
1445 1441 1435 1431 1426 1422 1418 1412 1410 1405 1400 1393 1400 1392 1398 1396 1383 1382 1393 1386 1394 1392 1403 1407 1392 1397 1378 1396 1398 1403 1410 1411
1451 1446 1442 1437 1433 1427 1423 1417 1412 1411 1407 1413 1403 1400 1393 1396 1389 1399 1384 1394 1394 1397 1399 1404 1395 1395 1392 1395 1397 1400 1404 1409